When you browse on this site, cookies collect data to enhance your experience and personalize the content and advertising you see.
Visit our Privacy Policy to learn more. By continuing to use the site, you agree to this use of cookies and data.

Previsão horária em Abbiategrasso

Hoje, 28 Setembro, Segunda-feira

Tempo Temperatura Precipitação Vento Pressão Humidade
00:00 +13°C° 0 mm 1 m/s 744 mmHg 69%
01:00 +12°C° 0 mm 1 m/s 744 mmHg 70%
02:00 +12°C° 0 mm 2 m/s 743 mmHg 70%
03:00 +12°C° 0 mm 2 m/s 743 mmHg 69%
04:00 +10°C° 0 mm 2 m/s 743 mmHg 69%
05:00 +10°C° 0 mm 2 m/s 743 mmHg 67%
06:00 +10°C° 0 mm 2 m/s 743 mmHg 66%
07:00 +11°C° 0 mm 1 m/s 743 mmHg 65%
08:00 +13°C° 0 mm 1 m/s 744 mmHg 58%
09:00 +15°C° 0 mm 1 m/s 744 mmHg 52%
10:00 +18°C° 0 mm 1 m/s 744 mmHg 46%
11:00 +19°C° 0 mm 1 m/s 744 mmHg 42%
12:00 +20°C° 0 mm 1 m/s 744 mmHg 38%
13:00 +20°C° 0 mm 2 m/s 745 mmHg 35%
14:00 +21°C° 0 mm 2 m/s 745 mmHg 35%
15:00 +21°C° 0 mm 2 m/s 745 mmHg 36%
16:00 +21°C° 0 mm 2 m/s 745 mmHg 36%
17:00 +19°C° 0 mm 2 m/s 746 mmHg 41%
18:00 +19°C° 0 mm 1 m/s 746 mmHg 47%
19:00 +18°C° 0 mm 1 m/s 747 mmHg 52%
20:00 +16°C° 0 mm 1 m/s 748 mmHg 57%
21:00 +15°C° 0 mm 1 m/s 749 mmHg 62%
22:00 +15°C° 0 mm 1 m/s 749 mmHg 67%
23:00 +14°C° 0 mm 1 m/s 749 mmHg 67%

Amanhã, 29 Setembro, Terça-feira

Tempo Temperatura Precipitação Vento Pressão Humidade
00:00 +14°C° 0 mm 1 m/s 750 mmHg 68%
01:00 +14°C° 0 mm 1 m/s 750 mmHg 68%
02:00 +13°C° 0 mm 1 m/s 750 mmHg 69%
03:00 +13°C° 0 mm 1 m/s 750 mmHg 69%
04:00 +12°C° 0 mm 0 m/s 750 mmHg 70%
05:00 +12°C° 0 mm 0 m/s 750 mmHg 70%
06:00 +12°C° 0 mm 0 m/s 751 mmHg 70%
07:00 +12°C° 0 mm 0 m/s 751 mmHg 71%
08:00 +13°C° 0 mm 0 m/s 751 mmHg 65%
09:00 +15°C° 0 mm 0 m/s 751 mmHg 60%
10:00 +19°C° 0 mm 1 m/s 751 mmHg 54%
11:00 +20°C° 0 mm 1 m/s 751 mmHg 52%
12:00 +21°C° 0 mm 1 m/s 751 mmHg 50%
13:00 +22°C° 0 mm 1 m/s 751 mmHg 48%
14:00 +22°C° 0 mm 1 m/s 751 mmHg 48%
15:00 +22°C° 0 mm 1 m/s 751 mmHg 47%
16:00 +22°C° 0 mm 1 m/s 750 mmHg 46%
17:00 +21°C° 0 mm 1 m/s 751 mmHg 50%
18:00 +20°C° 0 mm 1 m/s 751 mmHg 54%
19:00 +19°C° 0 mm 1 m/s 751 mmHg 58%
20:00 +19°C° 0 mm 1 m/s 751 mmHg 60%
21:00 +18°C° 0 mm 1 m/s 751 mmHg 62%
22:00 +18°C° 0 mm 1 m/s 751 mmHg 64%
23:00 +16°C° 0 mm 1 m/s 751 mmHg 66%

Depois de amanhã, 30 Setembro, Quarta-feira

Tempo Temperatura Precipitação Vento Pressão Humidade
00:00 +16°C° 0 mm 1 m/s 751 mmHg 68%
01:00 +16°C° 0 mm 1 m/s 751 mmHg 70%
02:00 +15°C° 0 mm 1 m/s 751 mmHg 71%
03:00 +15°C° 0 mm 1 m/s 751 mmHg 72%
04:00 +14°C° 0 mm 0 m/s 750 mmHg 73%
05:00 +15°C° 0 mm 1 m/s 750 mmHg 74%
06:00 +14°C° 0 mm 1 m/s 750 mmHg 75%
07:00 +14°C° 0 mm 1 m/s 750 mmHg 76%
08:00 +16°C° 0 mm 1 m/s 750 mmHg 70%
09:00 +19°C° 0 mm 1 m/s 750 mmHg 65%
10:00 +20°C° 0 mm 1 m/s 750 mmHg 59%
11:00 +21°C° 0 mm 1 m/s 749 mmHg 56%
12:00 +22°C° 0 mm 1 m/s 749 mmHg 52%
13:00 +23°C° 0 mm 1 m/s 749 mmHg 48%
14:00 +24°C° 0 mm 1 m/s 749 mmHg 48%
15:00 +24°C° 0 mm 1 m/s 748 mmHg 48%
16:00 +24°C° 0 mm 1 m/s 748 mmHg 47%
17:00 +22°C° 0 mm 1 m/s 748 mmHg 52%
18:00 +21°C° 0 mm 1 m/s 748 mmHg 56%
19:00 +20°C° 0 mm 1 m/s 748 mmHg 61%
20:00 +19°C° 0 mm 1 m/s 748 mmHg 64%
21:00 +19°C° 0 mm 1 m/s 748 mmHg 68%
22:00 +18°C° 0 mm 1 m/s 748 mmHg 72%
23:00 +18°C° 0 mm 1 m/s 748 mmHg 74%

1 Outubro, Quinta-feira

Tempo Temperatura Precipitação Vento Pressão Humidade
00:00 +16°C° 0 mm 1 m/s 748 mmHg 76%
01:00 +16°C° 0 mm 1 m/s 747 mmHg 78%
02:00 +16°C° 0 mm 1 m/s 747 mmHg 79%
03:00 +15°C° 0 mm 1 m/s 747 mmHg 80%
04:00 +15°C° 0 mm 1 m/s 746 mmHg 81%
05:00 +15°C° 0 mm 1 m/s 746 mmHg 82%
06:00 +14°C° 0 mm 0 m/s 746 mmHg 82%
07:00 +14°C° 0 mm 0 m/s 746 mmHg 82%
08:00 +16°C° 0 mm 1 m/s 745 mmHg 78%
09:00 +18°C° 0 mm 1 m/s 745 mmHg 74%
10:00 +19°C° 0 mm 1 m/s 745 mmHg 70%
11:00 +19°C° 0 mm 1 m/s 745 mmHg 70%
12:00 +19°C° 0 mm 1 m/s 744 mmHg 70%
13:00 +19°C° 0 mm 1 m/s 744 mmHg 70%
14:00 +20°C° 0.1 mm 1 m/s 744 mmHg 70%
15:00 +20°C° 0.1 mm 1 m/s 743 mmHg 70%
16:00 +20°C° 0.1 mm 1 m/s 743 mmHg 69%
17:00 +19°C° 0 mm 1 m/s 743 mmHg 72%
18:00 +19°C° 0 mm 1 m/s 743 mmHg 74%
19:00 +18°C° 0 mm 1 m/s 743 mmHg 76%
20:00 +18°C° 0 mm 1 m/s 743 mmHg 76%
21:00 +18°C° 0 mm 1 m/s 743 mmHg 76%
22:00 +18°C° 0 mm 1 m/s 743 mmHg 76%
23:00 +16°C° 0 mm 1 m/s 743 mmHg 77%

2 Outubro, Sexta-feira

Tempo Temperatura Precipitação Vento Pressão Humidade
00:00 +16°C° 0 mm 1 m/s 743 mmHg 77%
01:00 +16°C° 0 mm 1 m/s 742 mmHg 77%
02:00 +16°C° 0 mm 1 m/s 742 mmHg 78%
03:00 +15°C° 0 mm 1 m/s 742 mmHg 79%
04:00 +15°C° 0 mm 1 m/s 742 mmHg 81%
05:00 +15°C° 0 mm 1 m/s 742 mmHg 80%
06:00 +15°C° 0 mm 1 m/s 742 mmHg 80%
07:00 +15°C° 0 mm 1 m/s 741 mmHg 79%
08:00 +16°C° 0 mm 1 m/s 741 mmHg 77%
09:00 +16°C° 0 mm 1 m/s 741 mmHg 75%
10:00 +18°C° 0 mm 1 m/s 741 mmHg 72%
11:00 +19°C° 0.1 mm 1 m/s 741 mmHg 71%
12:00 +19°C° 0.1 mm 1 m/s 741 mmHg 69%
13:00 +20°C° 0.1 mm 1 m/s 741 mmHg 68%
14:00 +19°C° 0.1 mm 2 m/s 741 mmHg 67%
15:00 +19°C° 0.1 mm 2 m/s 740 mmHg 67%
16:00 +20°C° 0.1 mm 2 m/s 740 mmHg 67%
17:00 +19°C° 0.3 mm 2 m/s 740 mmHg 71%
18:00 +18°C° 0.3 mm 2 m/s 740 mmHg 75%
19:00 +18°C° 0.3 mm 2 m/s 740 mmHg 78%
20:00 +18°C° 0.3 mm 3 m/s 740 mmHg 79%
21:00 +17°C° 0.3 mm 3 m/s 739 mmHg 79%
22:00 +17°C° 0.3 mm 4 m/s 739 mmHg 79%
23:00 +17°C° 0.2 mm 4 m/s 738 mmHg 79%

3 Outubro, Sábado

Tempo Temperatura Precipitação Vento Pressão Humidade
00:00 +15°C° 0.2 mm 5 m/s 738 mmHg 79%
01:00 +15°C° 0.2 mm 5 m/s 737 mmHg 78%
02:00 +15°C° 2.7 mm 6 m/s 736 mmHg 81%
03:00 +15°C° 2.7 mm 6 m/s 735 mmHg 84%
04:00 +15°C° 2.7 mm 7 m/s 734 mmHg 86%
05:00 +15°C° 3.2 mm 7 m/s 733 mmHg 87%
06:00 +15°C° 3.2 mm 8 m/s 732 mmHg 88%
07:00 +13°C° 3.2 mm 8 m/s 731 mmHg 90%
08:00 +15°C° 0.9 mm 8 m/s 731 mmHg 88%
09:00 +16°C° 0.9 mm 8 m/s 731 mmHg 87%
10:00 +17°C° 0.9 mm 8 m/s 731 mmHg 86%
11:00 +17°C° 1.3 mm 7 m/s 731 mmHg 83%
12:00 +18°C° 1.3 mm 7 m/s 731 mmHg 80%
13:00 +20°C° 1.3 mm 6 m/s 731 mmHg 77%
14:00 +20°C° 0.9 mm 6 m/s 731 mmHg 70%
15:00 +20°C° 0.9 mm 5 m/s 731 mmHg 64%
16:00 +21°C° 0.9 mm 5 m/s 731 mmHg 57%
17:00 +19°C° 0.2 mm 4 m/s 732 mmHg 59%
18:00 +18°C° 0.2 mm 4 m/s 732 mmHg 62%
19:00 +17°C° 0.2 mm 3 m/s 733 mmHg 64%
20:00 +17°C° 0.2 mm 3 m/s 734 mmHg 66%
21:00 +16°C° 0.2 mm 3 m/s 734 mmHg 67%
22:00 +16°C° 0.2 mm 3 m/s 735 mmHg 69%
23:00 +16°C° 0.1 mm 3 m/s 735 mmHg 70%
Mostrar mais